Location: Cargill Incorporated Elevator
(42.7294°N, 93.7333°W)
Time: 04:49:26
(UTC+00:00)

Cosmos 2082 Rocket - Pass Details

Date: 19 January 2026
Orbit: 831 x 853 km, 71.0° (Epoch: 15 February)

Event Time Altitude Azimuth Distance (km) Brightness Sun altitude
Exits shadow 12:27:17 12° 320° (NW) 2,317 4.0 -13.3°
Maximum altitude 12:32:08 42° 254° (WSW) 1,202 2.6 -12.5°
Drops below altitude 10° 12:37:25 10° 185° (S) 2,470 4.8 -11.5°
Sets 12:39:59 0° 178° (S) 3,403 5.6 -11.1°
